Miscellaneous Local Product
Issued by NWS North Platte, NE

Home | Current Version | Previous Version | Text Only | Print | Product List | Glossary On
Versions: 1 2 3 4 5 6 7 8 9 10 11 12 13 14 15 16 17 18 19 20 21 22 23 24 25 26 27 28 29 30 31 32 33 34 35 36 37 38 39 40 41 42 43 44 45 46 47 48 49 50
000
AXUS43 KLBF 290510
MISLBF


WESTERN AND NORTH CENTRAL NEBRASKA HOURLY WEATHER ROUNDUP
NATIONAL WEATHER SERVICE NORTH PLATTE NE
1200 AM CDT TUE JUL 29 2014

***STATIONS NOT REPORTING VARIABLES SUCH AS SKY/WEATHER OR
PRESSURE ARE PROVIDED BY THE NEBRASKA DEPARTMENT OF
ROADS...RAWS...AND APRS NETWORKS...AND ARE NOT UNDER
NATIONAL WEATHER SERVICE QUALITY CONTROL***

...OBSERVATIONS IN AND NEAR THE EASTERN PANHANDLE OF NEBRASKA...

CITY           SKY/WX    TMP DP  RH WIND       PRES   REMARKS
PINE RIDGE     CLEAR     63  53  70 E7        30.26R
CHADRON        CLEAR     67  54  63 E8        30.23S
ALLIANCE       CLEAR     68  58  70 E9        30.24S
SIDNEY         MOCLDY    68  53  58 S6        30.26F
WHITECLAY        N/A     68  50  51 SE8         N/A
RUSHVILLE        N/A     67  52  58 E20         N/A
GORDON           N/A     67  56  66 E13         N/A
CRESCENT LAKE    N/A     68  58  70 SE7         N/A
LISCO            N/A     74  59  58 E8          N/A
BIG SPRINGS      N/A     72  60  66 SE6         N/A
$$

...OBSERVATIONS IN NORTH CENTRAL NEBRASKA...

CITY           SKY/WX    TMP DP  RH WIND       PRES   REMARKS
VALENTINE      CLEAR     64  51  62 E7        30.25S
THEDFORD       CLEAR     64  56  74 E3        30.26S
AINSWORTH      CLEAR     59  56  88 E3        30.25S
O`NEILL        CLEAR     62  53  72 E3        30.25S
ORD            CLEAR     61  57  87 CALM      30.22S
BROKEN BOW     CLEAR     63  57  81 SE5       30.23S
BROWNLEE         N/A     68  53  58 E9          N/A
SPRINGVIEW       N/A     60  54  80 CALM        N/A
DUNNING          N/A     63  60  88 CALM        N/A
ROSE             N/A     65  59  81 NE6         N/A
NEWPORT          N/A     59  56  88 E5          N/A
SARGENT          N/A     61  56  83 CALM        N/A
COMSTOCK         N/A     67  62  81 SE6         N/A
CHAMBERS         N/A     61  54  76 CALM        N/A
EWING            N/A     57  53  85 CALM        N/A
$$

...OBSERVATIONS IN SOUTHWEST NEBRASKA AND FAR NORTHEAST COLORADO...

CITY           SKY/WX    TMP DP  RH WIND       PRES   REMARKS
WRAY             N/A     74  53  48 S8        30.23F
HOLYOKE        FAIR      72  55  56 S7        30.23S
IMPERIAL       CLOUDY    68  58  70 SE12      30.23F
OGALLALA       PTCLDY    65  59  78 E8        30.23S
NORTH PLATTE   PTCLDY    63  58  83 E7        30.23S
MCCOOK         MOCLDY    68  59  73 E9        30.23S
LEXINGTON      MOCLDY    68  59  73 SE7       30.23F
PAXTON           N/A     68  61  78 SE3         N/A
SUTHERLAND       N/A     63  60  88 SE5         N/A
BRADY            N/A     65  58  78 CALM        N/A
CALLAWAY         N/A     64  59  83 SE6         N/A
$$

...SOME WEATHER OBSERVATIONS FROM AROUND THE REGION...

CITY           SKY/WX    TMP DP  RH WIND       PRES   REMARKS
DENVER         PTCLDY    67  58  72 S12       30.29S
LARAMIE        PTCLDY    60  51  72 SE14      30.41S
CHEYENNE       MOCLDY    62  54  74 W8G20     30.35R
SCOTTSBLUFF    CLEAR     70  61  73 E9        30.22F
RAPID CITY     CLEAR     61  51  70 SE3       30.28R
PIERRE         CLEAR     60  52  74 NE6       30.22S
WINNER         FAIR      62  50  64 SE6       30.25R
SIOUX FALLS    CLEAR     57  54  89 CALM      30.22F
OMAHA          CLEAR     64  56  75 N6        30.19S
GRAND ISLAND   CLEAR     63  57  81 E3        30.23S
KANSAS CITY    CLEAR     65  59  81 NW6       30.18S
WICHITA        PTCLDY    74  55  51 E7        30.17S
HAYS           MOCLDY    72  57  60 E10       30.22R
LIBERAL        CLOUDY    70  55  60 S5        30.27S
GOODLAND       MOCLDY    68  58  70 S10       30.25F
$$



USA.gov is the U.S. government's official web portal to all federal, state and local government web resources and services.